Regional Weather Roundup
Issued by NWS

Home | Current Version | Previous Version | Graphics & Text | Print | Product List | Glossary On
Versions: 1 2 3 4 5 6 7 8 9 10 11 12 13 14 15 16 17 18 19 20 21 22 23 24 25 26 27 28 29 30 31 32 33 34 35 36 37 38 39 40 41 42 43 44 45 46 47 48 49 50
000
ASUS43 KDMX 292003
RWRIA

WEATHER ROUNDUP FOR IOWA
NATIONAL WEATHER SERVICE DES MOINES IA
300 PM CDT THU SEP 29 2016

NOTE: "FAIR" INDICATES FEW OR NO CLOUDS BELOW 12,000 FEET WITH NO
SIGNIFICANT WEATHER AND/OR OBSTRUCTIONS TO VISIBILITY.

* - THESE STATIONS ARE NOT NWS STATIONS...THUS NOT UNDER NWS
QUALITY CONTROL.  THEY ALSO DO NOT REPORT WEATHER SUCH
AS PRECIPITATION OR FOG.

IAZ001>003-012>014-020>022-031>034-043>046-292100-
   NORTHWEST IOWA

CITY           SKY/WX    TMP DP  RH WIND       PRES   REMARKS
CARROLL *      SUNNY     68  46  45 E13       30.38S
CHEROKEE *     MOSUNNY   67  50  55 N8        30.39F
DENISON *      SUNNY     68  46  45 NE8G17    30.36F
LE MARS *      MOSUNNY   68  48  49 VRB3      30.40F
SHELDON *      MOSUNNY   66  48  52 SE5       30.39F
SIOUX CITY     MOSUNNY   71  52  50 CALM      30.38F
SPENCER        MOSUNNY   68  49  50 NE9       30.40F
STORM LAKE *   SUNNY     66  46  48 VRB6      30.39F
$$

IAZ055>058-069>071-079>083-090>094-292100-
   SOUTHWEST IOWA

CITY           SKY/WX    TMP DP  RH WIND       PRES   REMARKS
ATLANTIC *     SUNNY     68  48  49 NE9G17    30.36F
AUDUBON *      SUNNY     68  46  45 N6        30.38F
CLARINDA *       N/A     70  48  46 MISG      30.37F
COUNCIL BLFS * MOSUNNY   70  48  46 NE10      30.36F
CRESTON *      SUNNY     70  48  46 N15       30.35F
HARLAN  *      SUNNY     70  46  43 NE8       30.40F
LAMONI         SUNNY     71  49  45 N13       30.32F
RED OAK *      SUNNY     70  50  49 NE12      30.36F
SHENANDOAH *   SUNNY     70  46  43 NE10G16   30.36F
$$

IAZ047>049-059>061-072>074-084-292100-
   CENTRAL IOWA

CITY           SKY/WX    TMP DP  RH WIND       PRES   REMARKS
AMES           SUNNY     72  48  42 N13       30.34F
ANKENY *         N/A    N/A N/A N/A MISG        N/A
BOONE *        SUNNY     70  48  46 N13G18    30.34F
CHARITON *       N/A     72  48  43 N15       30.31F
DES MOINES     MOSUNNY   73  48  41 N12       30.33F
GRINNELL*      SUNNY     73  46  37 N10G20    30.31F
KNOXVILLE *    SUNNY     72  46  40 N12       30.29F
MARSHALLTOWN   SUNNY     73  50  44 N13G21    30.32F
NEWTON *       SUNNY     72  46  40 NE10G21   30.31F
PELLA *        SUNNY     74  47  37 N9        30.31F
PERRY *          N/A     70  47  43 NE9       30.36F
$$

IAZ004>006-015-016-023>025-035-036-292100-
   NORTH CENTRAL IOWA

CITY           SKY/WX    TMP DP  RH WIND       PRES   REMARKS
ALGONA *       SUNNY     66  52  59 NE8       30.40F
CLARION *      SUNNY     70  45  40 NE6G15    30.37F
ESTHERVILLE    SUNNY     65  51  60 MISG      30.41F
FORT DODGE *   SUNNY     66  54  63 N7        30.39F
MASON CITY     SUNNY     71  45  39 N10G18    30.39F
FOREST CITY *    N/A     72  45  37 N9        30.39F
WEBSTER CITY * SUNNY     72  46  40 N9G17     30.34F
IOWA FALLS *     N/A     72  45  37 NE8       30.36F
$$

IAZ007>011-017>019-026>030-037>042-050>054-066-292100-
   NORTHEAST IOWA

CITY           SKY/WX    TMP DP  RH WIND       PRES   REMARKS
CEDAR RAPIDS   SUNNY     74  49  41 N15       30.27F
CHARLES CITY * SUNNY     72  48  43 N7G16     30.36F
CLINTON *      MOSUNNY   74  53  48 NE18G24   30.24F
DECORAH *      SUNNY     70  48  46 VRB7G15   30.34F
DUBUQUE        SUNNY     72  49  44 NE15G21   30.27F
MONTICELLO *   SUNNY     73  48  40 N14G20    30.27F
OELWEIN *      SUNNY     72  46  40 NE13G20   30.33S
WATERLOO       SUNNY     73  48  41 N12       30.31F
$$

IAZ064-065-067-068-078-292100-
   EAST CENTRAL IOWA

CITY           SKY/WX    TMP DP  RH WIND       PRES   REMARKS
DAVENPORT      SUNNY     73  52  47 NE17      30.23F
IOWA CITY      SUNNY     76  48  37 N14G22    30.27F
MUSCATINE *    SUNNY     77  46  33 N22       30.23S
QUAD CITIES    SUNNY     74  52  46 N15       30.21F
$$

IAZ062-063-075>077-085>089-095>099-292100-
   SOUTHEAST IOWA

CITY           SKY/WX    TMP DP  RH WIND       PRES   REMARKS
BURLINGTON     SUNNY     75  50  41 N18G25    30.21F
FAIRFIELD *    SUNNY     75  43  31 N15G25    30.25F HAZE
FORT MADISON *   N/A     75  46  35 N14       30.21F
KEOKUK *       SUNNY     75  46  35 N14G21    30.20F
OSKALOOSA *      N/A     75  47  37 N13G20    30.28F
OTTUMWA        SUNNY     76  47  35 N18G26    30.27F
WASHINGTON *     N/A    N/A N/A N/A MISG        N/A
$$

ABBREVIATIONS USED IN REMARKS
   TC - TEMPERATURES IN CELSIUS
  WCI - WIND CHILL INDEX
   HX - HEAT INDEX
  VSB - VISIBILITY
$$





USA.gov is the U.S. government's official web portal to all federal, state and local government web resources and services.